STARLINK-11276, 61244

Orbit data source: Space-Track

STARLINK-11276, 61244 is a payload satellite owned by SpaceX/Seattle (US) in LEO that was launched on Wed, 25 Sep 2024 UTC via an FALCON 9 launch vehicle from the Air Force Western Test Range (AFWTR). Payload-class satellites include a variety of spacecraft equipped with specific instruments for various scientific and technological missions. These include communications satellites like Starlink; space stations such as the ISS; scientific satellites like the Hubble; Earth observation satellites from companies like Planet Labs, Umbra, and HawkEye 360; GPS; miniature CubeSats for education and research; and military/defense satellites.

Loading next visibility...
Identifier
61244, 2024-175B
Orbit
LEO
Last TLE update
18 hours ago
Origin
Manufacturer
SpaceX/Seattle
Mission
Operational Commercial Communications
Bus & Motor
STARLINK V2M, Unknown motor
Mass
730 kg wet, ~700 kg dry
Launch date (UTC)
2024-09-25 (10 months ago)
Launch vehicle
FALCON 9
Launch site
Air Force Western Test Range (AFWTR)
Object type
Payload
Rocket body
Debris
Shape & HBR
Box + 2 Pan, 14.5 m
Radar Cross Section
36.964 m², Large (>1 m²)

Expand to show TLE details & history

TLE from 18 hours ago
0 STARLINK-11276
1 61244U 24175B   25199.23832690  .00000468  00000-0  87203-5 0  9998
2 61244  53.1595 132.0026 0001135  80.4333 279.6814 15.69710639 46545
Epoch: 2025-07-18T05:43Z
TLE epoch observation values (Epoch: 2025-07-18T05:43:11.444Z)
Latitude
0.00007°
Longitude
109.91231°
Altitude
360.511 km
Speed
7.694 km/s
True Right ascension
08h 48m 00s
True Declination
0° 00' 00"
Sunlit
Object was in daylight at epoch
Visualization orbit readout
Latitude
-26.99933°
Longitude
-51.42011°
Altitude
368.234 km
Speed
7.688 km/s
Apparent Right ascension
23h 01m 22s
Apparent Declination
-34° 11' 28"
Sunlit
Object is in full shadow
Visualization observer readout
Local Sidereal Time
12:13:51
Azimuth
74.071° E
Elevation
-74.482°
Doppler factor
1
Orbital elements
Apogee altitude
360.75 km
Perigee altitude
359.221 km
Semi-major axis
6,738.123 km
Eccentricity
0.00011
Inclination
53.1595°
RAAN
132.0026°
Arg. of periapsis
80.4333°
True anomaly
279.66858°
Mean anomaly
279.6814°
Eccentric anomaly
279.67499°
Mean motion
3.92405 °/min
Orbital period
91.74 mins
BSTAR
0.0000087203
Loading maneuver chart data...
Loading SW <> Apogee altitude chart data...
Loading historical data...
Loading historical data...
Loading historical data...
Loading historical data...
Loading historical data...
Loading historical data...
Loading historical data...
|